GFSMA_500_temp_129.txt.gz
Temp
-12 -12 -12 -12 -12 -12 -13 -12 -12 -12 -13 -12 -12 -12 -12 -12 -12 -12 -12 -12 -12 -12 -12 -12 -12 -12 -12 -12 -13 -13 -12 -12 -12 -12 -12 -12 -12 -12 -12 -12 -12 -12 -12
-12 -12 -12 -12 -11 -12 -12 -12 -12 -12 -13 -13 -13 -13 -13 -12 -12 -12 -12 -12 -12 -12 -12 -12 -12 -12 -12 -12 -12 -13 -12 -12 -12 -12 -12 -12 -13 -12 -12 -12 -12 -12 -12
-12 -12 -12 -11 -12 -12 -12 -12 -12 -12 -13 -13 -14 -13 -14 -13 -13 -12 -12 -12 -13 -12 -12 -12 -12 -12 -12 -12 -12 -12 -12 -12 -12 -12 -12 -12 -13 -12 -12 -12 -12 -12 -12
-12 -12 -11 -11 -11 -11 -12 -13 -12 -12 -12 -12 -12 -13 -13 -13 -14 -13 -13 -12 -12 -13 -12 -13 -13 -12 -12 -12 -12 -12 -12 -12 -12 -12 -12 -12 -12 -12 -12 -12 -12 -12 -12
-11 -11 -11 -11 -11 -11 -11 -12 -12 -12 -12 -12 -12 -12 -12 -13 -13 -13 -14 -12 -12 -12 -13 -12 -13 -12 -12 -12 -12 -12 -12 -12 -12 -12 -12 -12 -12 -12 -12 -12 -12 -12 -12
-12 -12 -12 -12 -12 -11 -12 -13 -13 -11 -12 -12 -12 -12 -12 -13 -13 -13 -14 -14 -12 -13 -12 -13 -13 -13 -13 -12 -12 -12 -12 -12 -12 -12 -12 -12 -12 -12 -12 -12 -12 -12 -12
-12 -12 -12 -12 -11 -11 -11 -12 -13 -11 -12 -12 -12 -12 -12 -13 -13 -13 -13 -13 -12 -13 -13 -13 -13 -13 -13 -13 -12 -13 -13 -12 -12 -12 -12 -12 -12 -12 -12 -12 -12 -12 -12
-14 -14 -13 -13 -13 -12 -11 -11 -12 -12 -12 -12 -12 -12 -12 -12 -13 -13 -14 -13 -12 -13 -12 -13 -14 -14 -13 -13 -12 -12 -13 -13 -12 -12 -13 -13 -12 -13 -13 -13 -13 -13 -13
-16 -16 -15 -14 -15 -15 -13 -12 -12 -12 -12 -13 -12 -12 -12 -11 -12 -12 -12 -13 -12 -12 -12 -12 -13 -13 -13 -13 -12 -12 -13 -13 -12 -13 -12 -13 -13 -12 -12 -13 -13 -13 -13
-17 -17 -17 -16 -16 -15 -15 -15 -14 -13 -12 -12 -12 -13 -13 -12 -12 -12 -13 -13 -12 -12 -12 -13 -13 -13 -13 -13 -13 -12 -12 -13 -13 -13 -12 -12 -13 -13 -13 -12 -12 -12 -13
-19 -18 -18 -17 -17 -16 -16 -15 -15 -15 -15 -14 -13 -12 -13 -12 -12 -12 -12 -13 -13 -12 -12 -12 -13 -13 -13 -12 -13 -13 -13 -12 -13 -13 -13 -13 -13 -13 -13 -13 -12 -12 -12
-19 -19 -19 -19 -18 -17 -17 -17 -16 -15 -15 -14 -14 -13 -13 -12 -12 -12 -12 -13 -12 -13 -13 -13 -12 -13 -13 -12 -13 -14 -14 -13 -12 -12 -13 -13 -13 -13 -13 -13 -13 -12 -12
-19 -19 -19 -19 -19 -18 -17 -17 -17 -16 -16 -15 -14 -13 -13 -13 -13 -13 -13 -13 -13 -13 -12 -13 -13 -13 -13 -12 -13 -13 -14 -13 -13 -12 -13 -13 -13 -13 -13 -13 -13 -13 -12
-18 -19 -19 -18 -18 -18 -18 -17 -17 -17 -16 -16 -15 -14 -13 -13 -13 -13 -13 -13 -13 -13 -12 -13 -13 -13 -13 -12 -13 -13 -13 -13 -13 -12 -13 -12 -13 -13 -13 -13 -13 -13 -13
-17 -17 -18 -17 -17 -17 -17 -17 -17 -17 -17 -16 -15 -15 -14 -14 -14 -13 -14 -14 -13 -13 -13 -13 -13 -13 -13 -12 -13 -13 -13 -13 -13 -13 -13 -13 -13 -13 -13 -13 -13 -13 -13
-17 -17 -17 -17 -17 -18 -17 -17 -17 -16 -17 -17 -16 -15 -15 -15 -14 -14 -14 -14 -14 -14 -14 -14 -14 -14 -14 -13 -13 -13 -13 -13 -13 -13 -13 -13 -13 -13 -13 -13 -14 -13 -13
-17 -17 -17 -17 -17 -18 -18 -18 -18 -17 -17 -17 -16 -16 -15 -15 -15 -15 -15 -15 -14 -15 -14 -15 -15 -15 -14 -14 -13 -13 -13 -13 -13 -13 -13 -13 -13 -13 -13 -14 -14 -14 -13
-17 -17 -17 -17 -17 -17 -17 -17 -17 -17 -17 -17 -17 -17 -16 -16 -16 -16 -16 -15 -15 -15 -14 -15 -15 -15 -15 -15 -15 -14 -13 -13 -13 -13 -13 -13 -14 -14 -14 -14 -14 -14 -14
-18 -17 -17 -17 -17 -17 -17 -17 -16 -16 -17 -17 -17 -17 -17 -16 -16 -16 -16 -16 -16 -15 -15 -15 -15 -15 -15 -15 -15 -15 -14 -14 -14 -14 -14 -14 -14 -14 -14 -14 -15 -14 -14
-17 -17 -16 -16 -17 -16 -17 -16 -16 -16 -16 -16 -17 -17 -17 -17 -16 -16 -16 -16 -16 -15 -15 -15 -15 -15 -15 -16 -15 -15 -15 -15 -15 -15 -14 -15 -15 -15 -15 -14 -15 -15 -14
-17 -17 -17 -17 -17 -17 -17 -17 -18 -17 -16 -16 -16 -16 -17 -17 -16 -16 -16 -16 -16 -16 -15 -15 -15 -15 -15 -16 -16 -15 -15 -15 -15 -15 -15 -15 -15 -15 -15 -15 -14 -15 -15
-19 -19 -18 -17 -17 -17 -17 -17 -17 -17 -18 -17 -16 -15 -16 -16 -16 -16 -16 -16 -15 -15 -15 -15 -15 -15 -15 -15 -16 -16 -16 -16 -15 -15 -15 -15 -15 -15 -15 -15 -14 -15 -15
-20 -20 -19 -19 -18 -18 -17 -18 -17 -17 -18 -18 -17 -16 -15 -15 -15 -16 -15 -16 -16 -15 -15 -15 -15 -15 -15 -15 -16 -16 -16 -16 -15 -15 -16 -15 -15 -15 -15 -15 -15 -15 -15
-21 -21 -21 -20 -20 -20 -19 -18 -18 -18 -17 -17 -18 -17 -16 -16 -15 -15 -15 -15 -15 -15 -16 -16 -16 -16 -15 -15 -17 -17 -17 -17 -16 -16 -16 -15 -15 -15 -14 -15 -15 -15 -15
-21 -21 -20 -20 -21 -21 -20 -20 -19 -18 -18 -17 -17 -17 -17 -17 -16 -16 -16 -16 -16 -16 -16 -16 -16 -16 -16 -17 -17 -17 -18 -18 -17 -16 -16 -16 -16 -15 -15 -15 -15 -15 -15
-23 -22 -22 -21 -21 -20 -20 -20 -20 -20 -19 -18 -18 -17 -17 -17 -18 -17 -17 -17 -17 -17 -17 -17 -17 -16 -18 -17 -17 -17 -17 -18 -17 -17 -16 -16 -16 -15 -15 -15 -14 -15 -15

GFSMA_500_temp_132.txt.gz
Temp
-11 -11 -11 -11 -12 -11 -12 -12 -12 -12 -12 -12 -13 -12 -12 -13 -13 -12 -12 -12 -12 -11 -12 -12 -12 -11 -11 -11 -11 -11 -12 -12 -12 -12 -12 -12 -13 -13 -12 -12 -12 -12 -12
-11 -12 -11 -12 -12 -11 -11 -11 -11 -12 -12 -12 -12 -13 -13 -13 -13 -13 -13 -13 -12 -12 -12 -12 -12 -12 -11 -11 -11 -11 -11 -12 -12 -12 -12 -12 -12 -13 -12 -12 -12 -12 -12
-12 -12 -12 -12 -12 -12 -11 -11 -12 -11 -11 -12 -12 -12 -13 -13 -13 -13 -14 -14 -13 -12 -12 -12 -12 -12 -12 -11 -11 -11 -11 -12 -12 -12 -12 -12 -12 -12 -13 -12 -12 -12 -12
-12 -12 -12 -12 -12 -12 -12 -12 -11 -11 -11 -11 -11 -12 -12 -12 -12 -12 -13 -14 -14 -13 -12 -12 -12 -12 -12 -12 -11 -11 -11 -11 -12 -12 -12 -12 -12 -12 -12 -12 -12 -12 -12
-12 -12 -12 -12 -12 -12 -12 -11 -11 -12 -12 -11 -12 -13 -12 -12 -12 -12 -12 -12 -14 -14 -13 -13 -12 -12 -12 -12 -12 -12 -12 -11 -11 -12 -12 -12 -12 -12 -12 -12 -12 -12 -12
-12 -12 -12 -12 -12 -13 -13 -12 -11 -11 -11 -11 -12 -12 -12 -12 -12 -12 -12 -13 -13 -13 -13 -14 -13 -12 -12 -12 -12 -12 -12 -11 -11 -12 -12 -12 -12 -12 -12 -12 -12 -12 -12
-13 -12 -12 -12 -12 -12 -13 -13 -13 -12 -12 -12 -11 -12 -12 -11 -11 -11 -12 -12 -13 -13 -14 -13 -13 -13 -13 -13 -12 -12 -12 -12 -11 -12 -12 -12 -12 -12 -12 -12 -12 -13 -13
-15 -14 -14 -13 -13 -13 -13 -13 -14 -14 -13 -13 -12 -12 -11 -11 -11 -11 -11 -12 -12 -12 -13 -14 -14 -13 -13 -13 -12 -13 -12 -12 -11 -12 -12 -12 -12 -12 -12 -12 -12 -13 -13
-17 -17 -17 -16 -15 -15 -15 -15 -15 -15 -15 -14 -13 -13 -12 -11 -12 -12 -11 -11 -12 -12 -12 -13 -13 -13 -13 -13 -12 -13 -13 -12 -12 -12 -12 -12 -12 -12 -12 -12 -12 -12 -12
-19 -19 -18 -18 -17 -17 -17 -17 -16 -16 -16 -16 -15 -14 -13 -12 -12 -12 -11 -11 -12 -12 -12 -12 -12 -13 -13 -13 -13 -13 -13 -13 -12 -12 -12 -12 -12 -12 -12 -12 -12 -12 -12
-19 -19 -18 -19 -18 -18 -18 -17 -17 -17 -17 -16 -16 -14 -14 -14 -13 -12 -11 -11 -11 -12 -12 -11 -12 -12 -12 -12 -13 -13 -13 -13 -12 -12 -12 -12 -12 -12 -12 -12 -12 -12 -12
-19 -19 -19 -19 -18 -18 -18 -18 -18 -18 -18 -17 -16 -16 -15 -14 -13 -13 -12 -11 -10 -12 -12 -12 -12 -13 -12 -12 -12 -12 -12 -13 -13 -12 -12 -12 -12 -12 -12 -12 -12 -12 -12
-19 -19 -19 -18 -18 -18 -18 -18 -19 -18 -18 -18 -17 -17 -16 -15 -14 -13 -13 -12 -12 -12 -12 -12 -12 -13 -12 -12 -12 -12 -12 -12 -13 -13 -12 -12 -13 -13 -12 -12 -12 -12 -12
-19 -19 -18 -18 -18 -18 -18 -19 -18 -18 -18 -18 -17 -17 -16 -16 -15 -15 -14 -13 -13 -13 -13 -13 -12 -13 -12 -12 -13 -12 -12 -13 -13 -13 -12 -12 -12 -13 -13 -13 -12 -12 -12
-18 -19 -18 -18 -17 -17 -18 -18 -18 -18 -18 -18 -18 -17 -17 -17 -16 -16 -15 -14 -13 -13 -13 -13 -13 -13 -12 -13 -13 -13 -13 -13 -13 -13 -13 -12 -12 -12 -13 -13 -13 -13 -12
-18 -17 -17 -17 -17 -17 -17 -17 -17 -17 -17 -18 -18 -17 -17 -17 -17 -16 -16 -15 -14 -14 -13 -14 -13 -13 -13 -12 -12 -12 -12 -12 -12 -13 -12 -12 -12 -12 -13 -13 -13 -13 -12
-18 -18 -18 -17 -17 -17 -17 -17 -17 -17 -17 -17 -18 -17 -17 -17 -17 -16 -16 -16 -15 -15 -14 -14 -14 -14 -14 -13 -13 -13 -13 -12 -12 -12 -12 -13 -12 -12 -13 -13 -13 -13 -13
-17 -17 -17 -17 -17 -17 -17 -17 -17 -16 -16 -17 -17 -17 -17 -17 -17 -17 -16 -16 -16 -16 -15 -15 -15 -14 -14 -14 -14 -13 -13 -13 -13 -13 -13 -12 -12 -13 -13 -13 -13 -13 -13
-18 -17 -17 -17 -17 -17 -17 -17 -16 -16 -16 -16 -16 -17 -17 -17 -17 -17 -17 -17 -16 -16 -16 -15 -15 -15 -15 -15 -14 -14 -14 -13 -13 -13 -13 -13 -13 -13 -13 -13 -13 -14 -14
-18 -18 -18 -17 -17 -17 -16 -16 -16 -16 -16 -16 -16 -16 -16 -17 -17 -17 -17 -17 -17 -16 -16 -16 -16 -16 -16 -15 -15 -15 -14 -14 -14 -14 -13 -13 -13 -14 -14 -13 -14 -14 -14
-18 -18 -18 -17 -17 -17 -17 -17 -17 -16 -17 -17 -17 -17 -16 -16 -17 -17 -17 -17 -17 -17 -17 -16 -16 -16 -16 -16 -16 -15 -15 -15 -15 -14 -14 -14 -14 -14 -14 -14 -15 -15 -15
-20 -20 -19 -19 -19 -18 -17 -17 -17 -16 -16 -17 -18 -18 -18 -17 -17 -17 -17 -17 -17 -17 -17 -17 -16 -16 -16 -16 -16 -16 -16 -16 -15 -15 -15 -15 -15 -14 -14 -15 -15 -15 -16
-21 -21 -21 -21 -20 -20 -20 -19 -18 -17 -17 -17 -17 -18 -18 -18 -16 -16 -16 -17 -17 -17 -17 -17 -17 -16 -16 -16 -16 -16 -16 -16 -15 -15 -16 -15 -15 -15 -15 -15 -15 -16 -16
-22 -21 -21 -21 -21 -21 -21 -21 -20 -19 -19 -18 -18 -18 -18 -18 -17 -17 -16 -16 -16 -16 -16 -16 -16 -16 -16 -16 -15 -15 -15 -16 -16 -16 -16 -16 -16 -15 -15 -15 -15 -15 -15
-22 -21 -21 -21 -20 -20 -20 -20 -21 -21 -21 -20 -19 -18 -17 -18 -18 -17 -17 -16 -16 -16 -16 -16 -16 -16 -15 -15 -15 -15 -16 -16 -16 -16 -16 -16 -16 -16 -15 -15 -15 -16 -16
-23 -23 -23 -22 -22 -21 -21 -21 -21 -20 -20 -21 -21 -20 -19 -18 -17 -17 -17 -18 -18 -17 -17 -17 -16 -16 -16 -16 -16 -16 -16 -16 -16 -16 -16 -17 -16 -16 -16 -16 -16 -15 -15

GFSMA_500_temp_135.txt.gz
Temp
-11 -11 -12 -12 -12 -12 -12 -12 -11 -11 -11 -11 -12 -12 -12 -12 -12 -12 -12 -12 -12 -12 -12 -12 -12 -11 -11 -11 -11 -11 -11 -11 -11 -12 -12 -12 -12 -12 -12 -12 -12 -12 -12
-11 -11 -11 -12 -12 -12 -12 -12 -12 -12 -12 -12 -12 -12 -12 -12 -12 -12 -12 -13 -13 -13 -12 -12 -12 -12 -11 -11 -11 -11 -11 -11 -11 -11 -12 -12 -12 -12 -12 -12 -12 -12 -12
-12 -12 -12 -12 -12 -12 -12 -12 -12 -11 -11 -12 -12 -12 -11 -11 -12 -12 -12 -12 -12 -13 -13 -12 -12 -13 -12 -12 -11 -11 -12 -12 -12 -11 -11 -12 -12 -12 -12 -12 -12 -12 -12
-11 -12 -12 -12 -12 -12 -12 -13 -10 -11 -11 -12 -11 -12 -12 -11 -11 -13 -11 -12 -12 -12 -13 -13 -13 -12 -13 -13 -12 -11 -11 -12 -12 -12 -11 -11 -12 -11 -12 -12 -12 -12 -12
-12 -12 -12 -12 -12 -12 -12 -12 -12 -12 -12 -12 -12 -12 -12 -12 -12 -12 -11 -12 -12 -12 -12 -12 -12 -13 -13 -13 -13 -12 -12 -11 -11 -12 -11 -11 -12 -11 -11 -12 -12 -12 -12
-12 -12 -12 -12 -12 -12 -12 -12 -12 -13 -12 -12 -13 -12 -12 -12 -12 -12 -12 -12 -12 -12 -12 -12 -12 -12 -13 -13 -13 -13 -12 -12 -12 -12 -12 -11 -12 -12 -11 -12 -11 -11 -12
-13 -12 -12 -12 -12 -12 -12 -12 -13 -13 -13 -13 -13 -13 -13 -12 -12 -12 -11 -12 -12 -11 -12 -12 -12 -12 -12 -12 -14 -13 -13 -12 -12 -12 -12 -12 -11 -12 -12 -12 -11 -11 -11
-14 -14 -13 -13 -13 -13 -13 -12 -13 -13 -13 -13 -13 -13 -13 -13 -12 -12 -12 -12 -11 -12 -12 -12 -12 -12 -13 -13 -13 -13 -13 -14 -13 -13 -12 -12 -12 -11 -12 -12 -12 -12 -12
-16 -16 -16 -15 -15 -14 -14 -13 -13 -14 -14 -15 -14 -14 -14 -14 -13 -12 -12 -11 -12 -12 -12 -12 -12 -12 -13 -13 -13 -13 -13 -13 -14 -14 -13 -13 -12 -12 -12 -12 -12 -12 -12
-18 -18 -18 -18 -18 -17 -17 -17 -17 -17 -16 -17 -17 -17 -16 -15 -15 -13 -13 -13 -12 -12 -12 -11 -11 -12 -12 -12 -12 -12 -14 -14 -13 -13 -14 -13 -12 -12 -12 -12 -12 -12 -12
-18 -18 -18 -18 -19 -19 -19 -19 -19 -18 -18 -18 -18 -18 -17 -17 -17 -15 -13 -12 -13 -12 -12 -12 -12 -12 -12 -13 -11 -12 -12 -14 -13 -13 -13 -13 -12 -12 -13 -12 -12 -12 -12
-18 -18 -18 -18 -19 -19 -19 -18 -19 -19 -18 -18 -18 -18 -18 -17 -17 -17 -15 -13 -13 -13 -13 -12 -11 -11 -12 -12 -12 -11 -11 -12 -13 -13 -13 -13 -13 -12 -13 -12 -12 -12 -12
-18 -18 -18 -19 -19 -19 -19 -19 -19 -19 -18 -18 -18 -18 -18 -18 -17 -17 -16 -15 -14 -13 -13 -13 -12 -12 -12 -12 -12 -12 -11 -12 -12 -12 -13 -13 -13 -13 -13 -13 -12 -12 -12
-19 -18 -18 -18 -19 -18 -18 -18 -19 -19 -18 -18 -18 -18 -18 -18 -18 -18 -17 -16 -14 -14 -14 -13 -13 -12 -12 -12 -11 -11 -11 -12 -12 -12 -13 -13 -13 -13 -12 -13 -13 -12 -12
-19 -19 -19 -19 -18 -18 -18 -18 -18 -18 -18 -18 -18 -18 -18 -18 -18 -18 -17 -17 -16 -14 -14 -14 -14 -13 -13 -12 -12 -12 -12 -11 -12 -12 -12 -12 -13 -13 -12 -13 -13 -12 -12
-19 -19 -19 -19 -19 -18 -18 -16 -16 -17 -17 -18 -18 -18 -18 -18 -18 -17 -18 -18 -17 -16 -15 -15 -15 -14 -14 -13 -12 -13 -12 -12 -12 -12 -12 -12 -13 -13 -13 -13 -13 -13 -12
-19 -19 -18 -18 -18 -18 -18 -17 -16 -17 -17 -18 -18 -18 -18 -18 -17 -17 -17 -17 -17 -17 -16 -15 -16 -15 -14 -14 -13 -13 -13 -13 -13 -13 -12 -13 -11 -12 -13 -13 -13 -13 -13
-19 -19 -19 -18 -17 -17 -17 -17 -17 -17 -17 -17 -17 -17 -17 -17 -17 -17 -17 -17 -17 -17 -17 -16 -16 -16 -15 -15 -14 -13 -13 -13 -13 -13 -13 -13 -12 -13 -13 -13 -12 -12 -12
-20 -19 -19 -18 -18 -17 -17 -17 -16 -16 -16 -16 -16 -16 -17 -17 -17 -17 -17 -17 -17 -17 -17 -17 -16 -16 -16 -16 -15 -14 -13 -13 -13 -13 -13 -13 -13 -13 -12 -13 -13 -13 -13
-20 -20 -19 -19 -18 -18 -17 -17 -17 -17 -16 -16 -16 -16 -16 -16 -16 -17 -17 -17 -18 -18 -17 -17 -17 -17 -16 -16 -16 -15 -14 -14 -14 -13 -13 -14 -14 -13 -13 -13 -13 -13 -13
-20 -20 -20 -19 -19 -18 -18 -18 -18 -17 -17 -16 -16 -16 -16 -16 -16 -16 -17 -17 -17 -17 -17 -17 -17 -17 -17 -17 -16 -16 -15 -15 -14 -14 -14 -14 -14 -14 -14 -13 -13 -14 -14
-22 -22 -21 -21 -20 -20 -20 -19 -19 -18 -17 -17 -17 -17 -16 -17 -16 -17 -18 -17 -17 -17 -18 -17 -18 -17 -17 -17 -16 -16 -15 -15 -15 -15 -15 -15 -14 -14 -14 -14 -14 -14 -14
-22 -22 -22 -22 -21 -21 -21 -21 -21 -20 -20 -19 -18 -18 -17 -17 -17 -18 -18 -19 -17 -17 -17 -18 -18 -18 -17 -17 -17 -17 -16 -16 -15 -15 -15 -15 -16 -15 -15 -14 -14 -14 -15
-23 -22 -22 -22 -21 -21 -21 -21 -21 -21 -22 -22 -21 -19 -19 -18 -18 -18 -19 -19 -18 -17 -17 -17 -18 -18 -17 -17 -17 -17 -17 -17 -16 -16 -16 -15 -15 -16 -15 -15 -15 -15 -15
-23 -23 -23 -22 -22 -21 -21 -21 -21 -21 -21 -21 -22 -22 -20 -19 -19 -19 -19 -20 -19 -17 -17 -17 -17 -17 -17 -17 -17 -17 -17 -17 -17 -16 -16 -16 -16 -16 -16 -15 -15 -15 -15
-25 -24 -23 -23 -23 -23 -22 -22 -22 -22 -22 -22 -21 -21 -21 -21 -20 -19 -18 -19 -20 -18 -17 -17 -17 -17 -17 -17 -17 -17 -17 -17 -17 -17 -16 -16 -16 -16 -16 -16 -15 -15 -15

GFSMA_500_temp_138.txt.gz
Temp
-11 -11 -11 -12 -12 -12 -12 -12 -12 -11 -11 -12 -11 -11 -11 -12 -12 -12 -11 -11 -12 -12 -12 -12 -12 -12 -12 -12 -12 -12 -12 -12 -12 -12 -12 -12 -12 -12 -12 -13 -13 -12 -13
-11 -11 -11 -11 -11 -11 -12 -12 -12 -12 -11 -9 -10 -12 -12 -12 -12 -12 -11 -11 -12 -12 -12 -12 -12 -12 -12 -12 -12 -12 -12 -12 -12 -12 -12 -12 -12 -12 -12 -13 -13 -12 -12
-11 -11 -12 -11 -11 -12 -12 -11 -12 -12 -12 -10 -10 -9 -11 -12 -12 -13 -12 -11 -12 -11 -11 -12 -12 -12 -12 -12 -12 -12 -12 -12 -12 -12 -12 -12 -12 -12 -12 -13 -13 -13 -12
-12 -12 -12 -12 -12 -12 -12 -12 -11 -13 -12 -11 -12 -11 -11 -13 -12 -13 -12 -12 -12 -11 -11 -11 -12 -12 -12 -12 -12 -12 -12 -12 -13 -12 -12 -12 -12 -12 -12 -12 -13 -13 -13
-13 -13 -12 -12 -12 -12 -12 -12 -12 -12 -12 -12 -12 -12 -12 -12 -12 -13 -12 -12 -12 -12 -12 -12 -11 -12 -12 -12 -13 -13 -12 -12 -13 -13 -13 -13 -13 -12 -12 -12 -12 -12 -12
-13 -13 -13 -13 -12 -12 -12 -12 -12 -12 -12 -12 -12 -12 -13 -13 -12 -13 -12 -12 -12 -12 -12 -12 -12 -11 -12 -12 -12 -13 -13 -13 -13 -13 -13 -13 -13 -13 -12 -12 -12 -12 -11
-13 -13 -13 -13 -13 -13 -12 -12 -12 -13 -13 -13 -13 -13 -13 -13 -13 -13 -12 -12 -12 -12 -12 -12 -12 -11 -12 -12 -12 -12 -13 -13 -13 -13 -13 -13 -13 -13 -13 -12 -12 -12 -12
-14 -14 -14 -13 -13 -13 -13 -12 -12 -13 -15 -14 -14 -13 -13 -13 -14 -14 -14 -13 -13 -13 -12 -12 -12 -11 -12 -12 -12 -12 -13 -13 -13 -13 -13 -13 -13 -13 -13 -13 -12 -12 -12
-15 -15 -15 -14 -14 -14 -14 -14 -13 -13 -14 -16 -15 -15 -14 -13 -14 -14 -15 -14 -14 -13 -12 -12 -11 -11 -12 -11 -12 -12 -13 -13 -13 -13 -13 -13 -14 -14 -14 -13 -13 -12 -12
-16 -16 -16 -17 -17 -16 -16 -15 -15 -14 -14 -16 -19 -19 -17 -16 -16 -14 -15 -15 -15 -14 -13 -12 -12 -11 -12 -11 -12 -12 -12 -12 -12 -13 -13 -13 -13 -14 -14 -13 -13 -13 -12
-18 -17 -17 -18 -18 -18 -18 -18 -18 -18 -17 -17 -18 -20 -20 -19 -19 -18 -18 -16 -15 -15 -13 -13 -12 -12 -12 -11 -12 -12 -12 -12 -12 -12 -12 -13 -14 -13 -14 -14 -14 -13 -13
-18 -18 -18 -18 -18 -18 -18 -18 -18 -18 -18 -18 -18 -19 -19 -20 -19 -19 -18 -18 -18 -16 -15 -14 -13 -12 -12 -11 -12 -12 -12 -12 -12 -12 -12 -12 -13 -14 -13 -14 -14 -14 -13
-19 -19 -19 -19 -18 -19 -18 -18 -18 -18 -18 -18 -18 -18 -19 -19 -19 -19 -18 -18 -18 -17 -17 -15 -14 -14 -13 -12 -12 -12 -12 -12 -12 -12 -12 -12 -12 -12 -13 -14 -13 -14 -13
-19 -19 -19 -19 -19 -19 -18 -18 -18 -18 -18 -18 -18 -18 -18 -18 -19 -19 -19 -19 -18 -18 -18 -16 -15 -15 -14 -13 -12 -12 -12 -12 -12 -12 -12 -12 -12 -12 -12 -13 -13 -14 -14
-19 -19 -19 -19 -19 -19 -19 -19 -18 -18 -18 -18 -18 -18 -18 -18 -18 -18 -19 -19 -18 -18 -18 -17 -16 -14 -15 -14 -13 -13 -12 -13 -13 -12 -12 -11 -12 -11 -12 -12 -13 -13 -14
-20 -20 -19 -19 -19 -19 -19 -18 -18 -18 -18 -18 -17 -17 -17 -17 -18 -18 -18 -19 -18 -18 -18 -18 -17 -16 -15 -15 -15 -13 -13 -14 -13 -13 -12 -12 -11 -11 -12 -12 -12 -13 -14
-20 -20 -20 -19 -19 -18 -18 -18 -18 -18 -18 -18 -18 -16 -17 -17 -17 -17 -17 -18 -18 -18 -18 -17 -18 -18 -17 -16 -15 -15 -14 -13 -14 -13 -13 -12 -11 -11 -12 -13 -13 -13 -13
-21 -21 -20 -19 -19 -19 -18 -18 -18 -17 -17 -17 -17 -17 -16 -16 -17 -17 -17 -18 -18 -18 -17 -17 -17 -17 -18 -17 -17 -16 -15 -14 -13 -13 -13 -12 -12 -12 -11 -12 -13 -13 -13
-21 -21 -21 -20 -20 -19 -19 -19 -18 -17 -17 -17 -16 -16 -16 -16 -17 -17 -18 -17 -17 -17 -17 -17 -17 -17 -18 -18 -17 -17 -16 -15 -14 -13 -13 -13 -13 -13 -13 -13 -13 -13 -13
-21 -21 -21 -21 -20 -20 -20 -20 -19 -18 -17 -17 -17 -16 -16 -16 -16 -17 -17 -17 -17 -17 -17 -17 -17 -17 -17 -18 -18 -17 -17 -16 -15 -14 -12 -13 -14 -14 -14 -13 -13 -13 -13
-21 -21 -22 -22 -22 -22 -22 -21 -21 -20 -19 -18 -17 -17 -17 -16 -16 -16 -16 -16 -16 -16 -17 -17 -17 -17 -17 -17 -18 -17 -17 -17 -16 -15 -14 -13 -14 -14 -14 -14 -14 -13 -14
-22 -22 -23 -23 -22 -22 -22 -22 -21 -21 -21 -20 -19 -18 -17 -17 -16 -16 -17 -17 -17 -16 -16 -17 -17 -17 -17 -17 -18 -17 -17 -17 -17 -16 -16 -15 -15 -15 -15 -14 -14 -14 -14
-24 -24 -23 -23 -23 -22 -22 -22 -22 -21 -21 -21 -21 -21 -21 -20 -18 -18 -17 -17 -17 -17 -17 -18 -18 -17 -17 -17 -18 -18 -17 -17 -17 -17 -17 -16 -16 -16 -15 -15 -15 -15 -14
-25 -24 -24 -23 -23 -23 -22 -22 -22 -22 -21 -21 -22 -22 -23 -22 -21 -19 -19 -18 -18 -18 -18 -18 -18 -18 -17 -17 -18 -18 -18 -17 -18 -17 -17 -16 -16 -16 -16 -16 -15 -15 -15
-25 -25 -24 -24 -24 -24 -23 -23 -22 -23 -23 -22 -22 -22 -22 -22 -22 -20 -19 -19 -19 -19 -19 -19 -19 -18 -17 -17 -17 -18 -18 -18 -17 -18 -17 -17 -16 -16 -16 -16 -16 -16 -15
-26 -26 -26 -25 -24 -24 -24 -24 -24 -23 -23 -23 -23 -23 -23 -23 -22 -21 -22 -21 -20 -20 -20 -20 -20 -20 -18 -17 -17 -18 -18 -18 -18 -17 -17 -17 -17 -16 -16 -16 -16 -16 -16

GFSMA_500_temp_141.txt.gz
Temp
-12 -11 -11 -11 -11 -12 -11 -11 -12 -12 -12 -12 -10 -11 -11 -11 -11 -12 -12 -12 -13 -13 -12 -12 -13 -12 -12 -12 -12 -12 -12 -12 -12 -12 -12 -12 -12 -12 -12 -12 -12 -12 -13
-12 -12 -11 -11 -11 -11 -11 -11 -11 -11 -12 -12 -12 -9 -11 -10 -11 -11 -12 -12 -12 -13 -12 -12 -12 -13 -13 -13 -12 -12 -12 -12 -12 -12 -12 -12 -12 -13 -12 -12 -12 -12 -13
-12 -12 -11 -11 -12 -12 -12 -11 -11 -12 -12 -12 -12 -11 -12 -13 -13 -12 -9 -12 -13 -14 -13 -12 -12 -13 -12 -13 -13 -13 -12 -12 -12 -12 -12 -12 -12 -13 -13 -13 -12 -12 -13
-12 -12 -12 -12 -12 -13 -12 -12 -12 -12 -12 -12 -12 -13 -13 -12 -11 -12 -12 -12 -13 -13 -12 -13 -12 -12 -13 -13 -13 -13 -13 -12 -12 -12 -12 -12 -13 -13 -13 -13 -13 -13 -13
-12 -12 -12 -12 -12 -12 -12 -12 -12 -12 -12 -12 -12 -12 -12 -12 -12 -12 -11 -12 -13 -12 -13 -13 -13 -12 -12 -12 -12 -13 -13 -13 -12 -13 -12 -12 -12 -13 -13 -13 -13 -13 -12
-12 -12 -12 -12 -12 -12 -12 -12 -12 -12 -12 -13 -13 -13 -12 -12 -12 -13 -13 -12 -12 -13 -12 -12 -12 -12 -12 -12 -12 -12 -13 -13 -13 -13 -13 -12 -12 -12 -13 -13 -13 -13 -13
-13 -13 -12 -13 -13 -13 -12 -12 -12 -12 -13 -13 -13 -13 -13 -13 -13 -13 -13 -14 -13 -13 -13 -12 -12 -12 -12 -12 -13 -13 -12 -12 -13 -13 -13 -12 -12 -12 -12 -13 -13 -13 -13
-14 -14 -14 -14 -14 -13 -13 -13 -13 -13 -13 -13 -13 -14 -14 -14 -13 -13 -14 -14 -14 -14 -13 -13 -12 -12 -12 -12 -13 -13 -13 -12 -12 -12 -13 -13 -13 -12 -12 -12 -13 -13 -13
-15 -15 -14 -14 -14 -14 -14 -14 -14 -13 -13 -13 -13 -14 -15 -14 -15 -15 -14 -14 -14 -14 -14 -13 -13 -12 -12 -12 -12 -12 -12 -13 -12 -12 -12 -13 -13 -13 -13 -13 -12 -13 -13
-15 -15 -15 -15 -15 -15 -15 -15 -14 -14 -14 -14 -15 -15 -16 -17 -16 -15 -15 -14 -14 -14 -14 -14 -14 -13 -12 -12 -12 -12 -12 -12 -13 -12 -12 -12 -12 -13 -13 -13 -12 -12 -13
-16 -16 -16 -16 -16 -16 -16 -16 -17 -16 -16 -16 -16 -17 -18 -18 -19 -17 -17 -17 -16 -15 -14 -15 -15 -14 -13 -12 -12 -12 -12 -12 -13 -12 -12 -12 -12 -13 -13 -13 -12 -12 -13
-17 -17 -17 -17 -17 -17 -17 -17 -17 -17 -17 -17 -17 -17 -18 -18 -19 -19 -18 -17 -18 -17 -17 -15 -15 -15 -14 -13 -13 -13 -13 -13 -13 -13 -13 -13 -12 -12 -12 -12 -12 -13 -13
-18 -18 -18 -18 -18 -18 -18 -18 -18 -19 -19 -19 -18 -18 -18 -18 -18 -19 -18 -18 -18 -17 -17 -19 -18 -16 -15 -14 -14 -13 -13 -13 -13 -13 -12 -12 -12 -12 -12 -12 -12 -12 -13
-19 -19 -18 -18 -18 -19 -18 -19 -19 -19 -19 -19 -18 -18 -18 -18 -18 -18 -18 -18 -18 -18 -18 -18 -19 -18 -17 -16 -15 -14 -13 -13 -13 -13 -13 -12 -12 -12 -12 -12 -12 -12 -12
-19 -19 -19 -19 -19 -19 -19 -19 -19 -19 -19 -19 -19 -18 -18 -18 -18 -18 -18 -18 -18 -18 -18 -19 -19 -19 -19 -17 -16 -15 -14 -14 -13 -13 -13 -12 -13 -12 -13 -12 -12 -12 -12
-20 -20 -19 -19 -19 -20 -19 -19 -19 -19 -19 -18 -18 -18 -18 -18 -18 -17 -17 -17 -18 -18 -18 -19 -18 -18 -19 -18 -17 -16 -16 -15 -14 -14 -14 -13 -12 -13 -13 -12 -13 -13 -13
-20 -20 -20 -20 -20 -20 -20 -20 -19 -19 -19 -18 -18 -18 -18 -18 -17 -17 -17 -17 -17 -17 -17 -17 -18 -18 -19 -19 -18 -18 -17 -16 -16 -15 -15 -13 -13 -13 -13 -13 -13 -12 -13
-20 -20 -20 -21 -21 -21 -21 -20 -20 -19 -19 -18 -18 -17 -17 -17 -17 -17 -17 -16 -17 -17 -17 -17 -17 -18 -18 -19 -19 -19 -18 -18 -17 -16 -15 -13 -13 -14 -13 -13 -13 -13 -13
-21 -20 -20 -20 -21 -20 -20 -20 -20 -20 -19 -19 -18 -18 -17 -17 -17 -16 -16 -16 -16 -16 -16 -17 -17 -17 -18 -18 -18 -18 -18 -18 -18 -17 -16 -14 -14 -14 -14 -13 -13 -13 -13
-21 -21 -21 -21 -21 -21 -21 -21 -22 -21 -21 -20 -19 -18 -18 -18 -17 -16 -16 -16 -16 -16 -16 -16 -16 -17 -17 -17 -18 -18 -18 -18 -18 -18 -17 -16 -15 -14 -14 -14 -13 -13 -14
-23 -23 -22 -22 -22 -22 -23 -23 -22 -22 -22 -21 -21 -20 -19 -18 -17 -17 -16 -16 -16 -16 -16 -16 -16 -17 -17 -17 -18 -18 -18 -18 -18 -18 -17 -17 -16 -15 -14 -14 -14 -14 -14
-24 -24 -23 -24 -24 -24 -23 -23 -23 -23 -23 -22 -22 -22 -20 -19 -19 -19 -18 -17 -17 -17 -16 -16 -17 -17 -17 -17 -17 -18 -18 -18 -18 -18 -18 -17 -16 -16 -17 -15 -15 -15 -14
-25 -25 -25 -25 -25 -24 -24 -24 -23 -23 -23 -22 -22 -22 -21 -21 -22 -22 -20 -19 -19 -17 -17 -17 -17 -17 -17 -17 -17 -17 -17 -18 -18 -18 -18 -18 -17 -17 -17 -16 -15 -15 -15
-26 -26 -26 -26 -25 -25 -25 -24 -24 -23 -23 -23 -23 -22 -22 -22 -22 -22 -22 -21 -20 -19 -19 -18 -18 -17 -18 -18 -18 -18 -18 -18 -18 -18 -18 -18 -17 -17 -17 -16 -17 -16 -15
-28 -27 -27 -27 -26 -26 -25 -25 -24 -23 -24 -24 -23 -23 -22 -23 -22 -22 -23 -22 -22 -21 -20 -20 -19 -19 -19 -18 -18 -18 -18 -18 -18 -18 -18 -18 -17 -17 -17 -17 -16 -17 -17
-28 -28 -27 -27 -27 -26 -25 -25 -24 -24 -24 -24 -24 -24 -23 -23 -22 -23 -22 -22 -22 -22 -22 -20 -20 -20 -20 -19 -19 -19 -19 -18 -18 -18 -18 -18 -18 -18 -18 -17 -17 -17 -17

GFSMA_500_temp_144.txt.gz
Temp
-12 -12 -12 -12 -11 -11 -12 -12 -12 -12 -12 -12 -13 -13 -10 -11 -11 -12 -12 -12 -12 -12 -12 -12 -12 -12 -12 -12 -13 -13 -13 -13 -13 -13 -13 -12 -12 -12 -12 -13 -13 -12 -12
-12 -12 -12 -12 -12 -12 -12 -12 -12 -12 -12 -12 -12 -13 -13 -12 -13 -13 -13 -12 -12 -12 -12 -12 -12 -12 -13 -13 -13 -13 -13 -13 -13 -13 -13 -13 -13 -12 -12 -13 -13 -13 -13
-12 -12 -12 -12 -12 -12 -12 -12 -12 -12 -12 -12 -13 -13 -13 -13 -13 -13 -12 -12 -13 -12 -12 -12 -13 -13 -13 -13 -13 -13 -13 -13 -13 -13 -13 -13 -13 -13 -12 -12 -13 -13 -13
-12 -12 -13 -12 -12 -12 -12 -12 -12 -12 -12 -12 -12 -13 -13 -13 -13 -13 -12 -12 -13 -13 -12 -12 -12 -12 -13 -13 -13 -13 -13 -13 -14 -13 -13 -13 -13 -13 -13 -13 -13 -13 -13
-12 -12 -13 -13 -13 -12 -12 -12 -12 -12 -12 -12 -12 -12 -13 -13 -12 -12 -12 -12 -12 -13 -14 -14 -13 -12 -12 -12 -12 -12 -12 -12 -13 -13 -13 -13 -13 -13 -13 -13 -13 -13 -13
-13 -13 -13 -13 -13 -13 -12 -12 -12 -12 -12 -12 -12 -12 -13 -12 -12 -12 -13 -13 -12 -12 -13 -13 -14 -13 -12 -12 -12 -12 -12 -11 -12 -13 -13 -13 -13 -13 -13 -13 -13 -12 -13
-13 -13 -13 -13 -13 -13 -13 -13 -13 -13 -13 -13 -13 -13 -13 -13 -13 -13 -13 -13 -13 -13 -13 -13 -13 -13 -11 -12 -12 -12 -12 -12 -12 -12 -13 -13 -12 -13 -13 -13 -13 -13 -12
-14 -14 -14 -14 -14 -14 -14 -14 -14 -14 -14 -14 -14 -14 -13 -13 -13 -13 -13 -13 -13 -13 -13 -13 -13 -13 -13 -12 -12 -12 -12 -12 -12 -12 -12 -13 -13 -13 -13 -13 -13 -13 -13
-15 -15 -15 -15 -15 -15 -15 -14 -14 -14 -14 -14 -14 -14 -14 -14 -14 -14 -13 -13 -13 -13 -14 -14 -13 -13 -13 -12 -12 -12 -13 -13 -13 -13 -12 -12 -13 -13 -12 -13 -13 -13 -13
-16 -16 -16 -16 -15 -15 -15 -15 -15 -15 -15 -15 -14 -14 -14 -14 -15 -15 -15 -14 -14 -14 -14 -14 -15 -14 -14 -13 -12 -12 -12 -13 -13 -13 -13 -13 -12 -13 -13 -13 -13 -13 -12
-17 -17 -17 -16 -16 -16 -16 -16 -16 -16 -15 -15 -16 -16 -15 -15 -16 -15 -16 -17 -16 -16 -15 -15 -14 -15 -15 -14 -14 -13 -12 -12 -13 -13 -12 -13 -12 -12 -12 -12 -12 -12 -12
-18 -17 -17 -17 -17 -17 -16 -16 -16 -17 -16 -17 -17 -17 -17 -17 -17 -17 -17 -17 -18 -18 -17 -16 -16 -16 -16 -15 -15 -14 -13 -12 -12 -12 -12 -12 -12 -12 -12 -12 -12 -12 -12
-19 -19 -18 -18 -18 -18 -18 -18 -18 -18 -17 -17 -17 -17 -18 -18 -18 -18 -17 -18 -18 -18 -18 -18 -18 -17 -17 -17 -16 -15 -14 -13 -12 -12 -13 -13 -12 -12 -12 -12 -12 -12 -12
-19 -19 -19 -19 -19 -19 -18 -18 -18 -18 -18 -18 -18 -18 -18 -19 -19 -19 -19 -18 -18 -18 -18 -17 -18 -18 -18 -17 -17 -16 -15 -14 -13 -13 -13 -13 -13 -12 -12 -12 -12 -12 -12
-19 -19 -19 -20 -19 -19 -19 -19 -19 -19 -19 -19 -19 -19 -19 -19 -19 -19 -19 -18 -18 -18 -18 -17 -17 -18 -18 -18 -18 -18 -17 -16 -14 -13 -14 -14 -14 -13 -13 -12 -12 -12 -12
-20 -20 -20 -19 -19 -20 -20 -20 -20 -20 -20 -20 -20 -19 -19 -19 -18 -18 -18 -18 -18 -18 -17 -17 -17 -18 -18 -18 -19 -19 -18 -18 -17 -15 -15 -15 -14 -14 -13 -13 -13 -13 -12
-20 -20 -20 -20 -21 -20 -20 -20 -20 -20 -20 -20 -20 -19 -19 -18 -18 -18 -18 -17 -17 -17 -17 -17 -17 -18 -18 -18 -19 -19 -19 -19 -18 -18 -17 -16 -15 -15 -14 -14 -14 -13 -12
-21 -20 -21 -21 -20 -20 -20 -21 -21 -20 -20 -20 -20 -20 -19 -19 -19 -18 -17 -17 -17 -17 -17 -16 -17 -17 -17 -18 -18 -19 -19 -19 -19 -19 -18 -18 -17 -16 -16 -15 -15 -14 -13
-21 -21 -21 -21 -21 -20 -21 -21 -21 -21 -21 -21 -21 -20 -19 -19 -18 -18 -17 -17 -17 -17 -17 -16 -16 -17 -17 -17 -17 -18 -18 -19 -19 -19 -19 -19 -19 -18 -17 -16 -15 -15 -14
-22 -22 -23 -23 -22 -22 -21 -21 -22 -22 -22 -22 -22 -21 -20 -20 -19 -18 -18 -18 -17 -16 -16 -16 -16 -16 -17 -17 -17 -17 -18 -18 -18 -18 -19 -19 -19 -18 -18 -17 -15 -15 -14
-24 -24 -24 -23 -23 -23 -22 -23 -24 -23 -23 -23 -23 -22 -22 -21 -20 -19 -18 -17 -17 -17 -17 -16 -16 -16 -16 -17 -17 -18 -18 -18 -18 -18 -19 -18 -18 -18 -18 -17 -16 -14 -14
-24 -25 -24 -24 -24 -24 -24 -24 -25 -24 -24 -23 -24 -23 -23 -22 -22 -21 -20 -19 -19 -19 -18 -17 -17 -16 -16 -16 -17 -17 -18 -18 -18 -18 -18 -18 -18 -18 -18 -18 -16 -17 -15
-25 -25 -26 -25 -25 -25 -25 -25 -25 -25 -24 -24 -24 -24 -23 -23 -22 -22 -22 -21 -21 -21 -20 -20 -18 -18 -17 -17 -17 -17 -18 -18 -18 -18 -18 -18 -18 -18 -18 -18 -17 -17 -18
-26 -26 -26 -26 -27 -27 -26 -26 -25 -25 -25 -25 -25 -24 -23 -24 -23 -22 -22 -23 -22 -22 -21 -21 -20 -19 -18 -18 -18 -18 -18 -18 -18 -18 -18 -18 -18 -18 -18 -18 -17 -17 -17
-26 -26 -27 -28 -28 -28 -27 -27 -26 -26 -25 -25 -25 -24 -24 -24 -23 -23 -22 -22 -23 -23 -22 -22 -21 -20 -20 -19 -19 -18 -18 -18 -18 -18 -18 -18 -18 -18 -18 -18 -18 -18 -18
-27 -27 -27 -28 -28 -28 -28 -27 -27 -26 -25 -25 -25 -24 -24 -23 -23 -22 -22 -22 -22 -22 -22 -22 -22 -22 -21 -20 -20 -20 -19 -20 -20 -19 -19 -18 -18 -19 -19 -18 -18 -18 -18

GFSMA_500_temp_147.txt.gz
Temp
-12 -12 -12 -12 -12 -12 -12 -12 -12 -12 -12 -12 -12 -13 -13 -13 -12 -12 -13 -13 -13 -14 -13 -13 -13 -13 -12 -12 -13 -12 -12 -12 -12 -12 -13 -13 -13 -13 -13 -12 -12 -13 -13
-12 -12 -12 -12 -12 -12 -11 -12 -12 -12 -12 -12 -12 -13 -13 -13 -13 -13 -13 -12 -11 -12 -12 -13 -13 -12 -12 -12 -13 -13 -13 -12 -12 -12 -12 -13 -13 -13 -13 -13 -12 -13 -13
-11 -12 -12 -12 -12 -12 -12 -11 -12 -12 -13 -13 -13 -13 -12 -12 -13 -13 -13 -13 -12 -11 -11 -12 -13 -12 -12 -12 -13 -13 -12 -13 -13 -12 -12 -12 -13 -13 -13 -13 -13 -13 -13
-12 -12 -11 -11 -12 -12 -12 -12 -12 -12 -12 -12 -13 -13 -12 -12 -13 -13 -13 -13 -13 -12 -12 -11 -13 -12 -12 -12 -12 -12 -13 -13 -13 -12 -12 -12 -12 -13 -13 -13 -13 -13 -13
-13 -12 -12 -12 -12 -12 -12 -12 -12 -12 -12 -12 -13 -13 -13 -13 -13 -13 -13 -13 -13 -13 -12 -12 -12 -12 -12 -11 -12 -12 -12 -12 -12 -12 -13 -13 -12 -12 -13 -13 -13 -13 -13
-13 -13 -13 -13 -13 -13 -13 -13 -13 -12 -12 -13 -13 -13 -13 -13 -13 -13 -13 -13 -13 -13 -13 -12 -13 -12 -12 -13 -11 -12 -12 -12 -12 -12 -13 -12 -12 -12 -12 -12 -13 -13 -13
-15 -15 -14 -14 -14 -14 -14 -13 -13 -13 -13 -13 -13 -13 -13 -14 -14 -14 -13 -13 -13 -13 -13 -13 -12 -13 -13 -13 -13 -11 -12 -13 -12 -12 -12 -12 -12 -13 -12 -12 -12 -12 -13
-16 -16 -16 -15 -15 -15 -14 -14 -14 -14 -14 -14 -14 -14 -14 -14 -14 -14 -14 -14 -13 -13 -13 -13 -13 -13 -14 -14 -14 -13 -13 -12 -13 -12 -12 -12 -12 -12 -13 -12 -12 -12 -12
-17 -17 -17 -16 -16 -16 -16 -15 -15 -15 -15 -15 -14 -14 -14 -14 -14 -14 -15 -14 -14 -14 -13 -13 -14 -14 -14 -14 -13 -13 -13 -12 -13 -12 -12 -12 -12 -12 -12 -12 -13 -12 -12
-18 -18 -18 -17 -17 -17 -17 -17 -16 -16 -16 -16 -15 -15 -15 -15 -15 -15 -15 -15 -15 -15 -14 -14 -14 -14 -14 -14 -14 -13 -13 -13 -12 -12 -12 -12 -12 -12 -12 -12 -12 -13 -13
-18 -18 -18 -18 -18 -18 -18 -17 -17 -17 -17 -16 -16 -16 -16 -15 -15 -15 -15 -16 -16 -16 -16 -15 -15 -15 -15 -15 -15 -14 -14 -13 -13 -12 -12 -12 -12 -12 -13 -12 -12 -12 -12
-18 -18 -18 -18 -18 -18 -18 -18 -18 -18 -18 -17 -17 -17 -17 -16 -16 -16 -16 -17 -17 -17 -17 -17 -16 -16 -16 -15 -15 -14 -14 -14 -13 -13 -12 -12 -12 -13 -12 -12 -12 -12 -12
-19 -18 -18 -19 -18 -18 -18 -18 -18 -18 -18 -18 -18 -18 -18 -17 -17 -17 -17 -17 -17 -18 -18 -18 -18 -17 -17 -16 -15 -15 -14 -14 -14 -13 -13 -12 -12 -13 -13 -12 -13 -12 -12
-19 -19 -18 -18 -18 -18 -18 -18 -19 -19 -19 -19 -18 -18 -18 -18 -18 -18 -18 -18 -18 -18 -18 -18 -18 -18 -18 -18 -17 -16 -15 -15 -14 -14 -14 -13 -13 -12 -12 -12 -13 -13 -12
-20 -19 -19 -19 -19 -19 -19 -19 -19 -19 -19 -19 -19 -19 -19 -19 -18 -18 -18 -18 -18 -18 -18 -18 -19 -19 -18 -18 -18 -18 -17 -17 -16 -16 -15 -14 -13 -13 -12 -13 -13 -13 -13
-20 -20 -20 -19 -19 -19 -20 -20 -20 -20 -20 -20 -20 -20 -19 -19 -19 -19 -19 -19 -19 -18 -18 -19 -18 -18 -18 -18 -18 -18 -18 -18 -18 -17 -16 -15 -14 -13 -13 -13 -14 -14 -13
-21 -21 -20 -20 -20 -20 -20 -20 -20 -20 -21 -21 -21 -20 -20 -20 -20 -19 -19 -19 -18 -18 -18 -18 -18 -18 -18 -18 -18 -18 -17 -18 -18 -18 -18 -17 -16 -15 -15 -15 -14 -14 -14
-21 -21 -21 -21 -21 -21 -21 -21 -21 -21 -21 -20 -21 -20 -20 -20 -20 -20 -20 -19 -18 -18 -17 -17 -17 -18 -18 -18 -18 -17 -17 -17 -18 -18 -18 -18 -18 -17 -17 -17 -17 -15 -14
-22 -22 -22 -22 -22 -22 -22 -22 -22 -22 -22 -21 -21 -21 -21 -21 -20 -20 -20 -20 -19 -18 -17 -17 -17 -17 -17 -17 -17 -17 -17 -18 -18 -18 -18 -19 -18 -19 -19 -19 -19 -17 -16
-22 -23 -23 -23 -24 -24 -24 -23 -23 -23 -23 -23 -22 -22 -22 -22 -22 -21 -20 -20 -19 -19 -18 -17 -17 -17 -17 -17 -17 -17 -17 -17 -17 -18 -18 -19 -19 -19 -19 -19 -19 -19 -18
-24 -24 -24 -25 -25 -25 -25 -24 -24 -24 -24 -24 -24 -23 -23 -23 -23 -23 -22 -21 -20 -19 -18 -17 -17 -17 -17 -16 -17 -17 -17 -17 -17 -18 -18 -19 -19 -19 -19 -19 -19 -19 -19
-25 -25 -25 -25 -25 -25 -25 -25 -25 -24 -25 -25 -25 -24 -24 -24 -24 -24 -23 -22 -22 -20 -19 -19 -19 -19 -18 -17 -17 -17 -17 -17 -17 -18 -18 -18 -18 -19 -19 -19 -19 -19 -19
-25 -25 -26 -26 -26 -26 -26 -26 -26 -26 -26 -26 -25 -25 -25 -25 -24 -24 -23 -23 -22 -22 -21 -21 -21 -21 -20 -19 -18 -17 -17 -17 -18 -18 -18 -19 -18 -19 -19 -19 -19 -19 -18
-26 -26 -26 -26 -26 -27 -27 -27 -27 -27 -27 -26 -26 -26 -25 -25 -25 -24 -24 -23 -23 -23 -22 -22 -22 -22 -21 -21 -20 -19 -18 -18 -18 -19 -19 -19 -19 -19 -19 -19 -19 -19 -19
-26 -26 -26 -27 -27 -27 -28 -28 -28 -28 -27 -27 -26 -26 -26 -25 -25 -24 -24 -23 -23 -23 -23 -23 -23 -23 -22 -21 -21 -21 -20 -19 -19 -19 -19 -19 -19 -19 -19 -19 -19 -19 -19
-26 -27 -27 -27 -27 -28 -28 -29 -29 -28 -27 -27 -27 -26 -26 -25 -25 -24 -24 -23 -23 -22 -22 -22 -22 -22 -23 -23 -23 -22 -21 -21 -20 -20 -20 -19 -19 -19 -19 -19 -19 -19 -19